Regional Weather Roundup
Issued by NWS

Home | Current Version | Previous Version | Graphics & Text | Print | Product List | Glossary Off
Versions: 1 2 3 4 5 6 7 8 9 10 11 12 13 14 15 16 17 18 19 20 21 22 23 24 25 26 27 28 29 30 31 32 33 34 35 36 37 38 39 40 41 42 43 44 45 46 47 48 49 50

492
ASUS43 KMKX 090800
RWRWI

WISCONSIN REGIONAL WEATHER ROUNDUP
NATIONAL WEATHER SERVICE MILWAUKEE/SULLIVAN WI
200 AM CST TUE FEB 09 2016

NOTE: "FAIR" INDICATES FEW OR NO CLOUDS BELOW 12,000 FEET WITH NO
SIGNIFICANT WEATHER AND/OR OBSTRUCTIONS TO VISIBILITY.

WIZ001-002-006>008-014>016-023>028-090900-
NORTHWEST WISCONSIN

CITY           SKY/WX    TMP DP  RH WIND       PRES   REMARKS
SUPERIOR ARPT  CLOUDY     6  -2  68 N13       30.02S WCI -10
ASHLAND        CLOUDY    10   6  84 NW9       29.92S WCI  -3
HAYWARD        CLOUDY     6  -1  73 VRB6      29.91S WCI  -4
SIREN          FLURRIES   6  -1  72 N12       29.98S WCI  -9
CUMBERLAND     PTCLDY     5  -2  72 NW16      29.92F WCI -14
RICE LAKE      MOCLDY     6  -1  73 NW10G17   29.95R WCI  -9
CHETEK         CLOUDY     6   0  74 NW9       29.93R WCI  -8
LADYSMITH      CLOUDY     7   2  80 NW14      29.88S HAZE    WCI -10
EAU CLAIRE     NOT AVBL
MENOMONIE      MOCLDY     9   0  67 NW15      29.95S WCI  -8
NEW RICHMOND   CLOUDY     9   1  70 N17G24    29.97S WCI -10
OSCEOLA        FLURRIES   9   2  72 N16       30.01S WCI  -8
$$

WIZ003>005-009-010-017-018-090900-
NORTH CENTRAL WISCONSIN

CITY           SKY/WX    TMP DP  RH WIND       PRES   REMARKS
MANITOWISH WTR LGT SNOW  10   6  82 N10G17    29.75S WCI  -3
ARBOR VITAE    LGT SNOW  12   8  82 N10G17    29.74S WCI  -1
WOODRUFF       LGT SNOW  12   8  82 N10G17    29.74S WCI  -1
RHINELANDER    CLOUDY     7   3  84 NW5       29.73S WCI  -2
EAGLE RIVER    LGT SNOW  10   4  77 N9        29.72S WCI  -3
LAND O LAKES   LGT SNOW  11   7  83 N10G17    29.73S WCI  -3
PHILLIPS       LGT SNOW   7   2  82 NW8       29.79S WCI  -6
TOMAHAWK       LGT SNOW   7   2  82 NW6       29.77S WCI  -4
MEDFORD        CLOUDY     7   2  82 NW13      29.79R WCI  -9
MERRILL        FLURRIES   8   3  78 NW9       29.78S WCI  -5
$$

WIZ029-030-035-036-043>047-090900-
CENTRAL WISCONSIN

CITY           SKY/WX    TMP DP  RH WIND       PRES   REMARKS
WAUSAU         FLURRIES  10   3  73 NW9       29.76S WCI  -3
MOSINEE        FLURRIES   9   5  85 NW12      29.78F WCI  -6
MARSHFIELD     PTCLDY     7   0  73 NW17      29.79S WCI -12
STEVENS POINT  LGT SNOW   9   4  78 NW9       29.79S WCI  -4
WAUPACA        FLURRIES  15   8  72 NW12      29.78S WCI   2
WAUTOMA        NOT AVBL
WISC RAPIDS    CLEAR      9   1  70 NW9       29.83R WCI  -4
CAMP DOUGLAS   CLOUDY     9   7  92 NW13      29.84R WCI  -7
$$

WIZ011>013-019>022-031-037>040-048>050-090900-
NORTHEAST WISCONSIN

CITY           SKY/WX    TMP DP  RH WIND       PRES   REMARKS
ANTIGO         FLURRIES   8   4  84 NW12      29.72S WCI  -7
SHAWANO        LGT SNOW  17  10  75 NW6       29.77S WCI   8
OCONTO         CLOUDY    17   7  65 NW9       29.76R WCI   5
STURGEON BAY   PTCLDY    16   5  62 N14       29.74S WCI   1
GREEN BAY      LGT SNOW  16  11  80 NW10      29.76R WCI   4
MANITOWOC      NOT AVBL
APPLETON       CLOUDY    14   9  79 W10       29.73S WCI   1
CLINTONVILLE   FLURRIES  14   9  79 NW9       29.77S WCI   2
OSHKOSH        CLOUDY    15   9  76 NW12      29.76R WCI   2
$$

WIZ032>034-041-042-053>061-090900-
SOUTHWEST WISCONSIN

CITY           SKY/WX    TMP DP  RH WIND       PRES   REMARKS
LA CROSSE      CLOUDY    11   1  64 N18G28    29.92R WCI  -7
SPARTA         FLURRIES  10   5  80 NW10      29.89S WCI  -4
VIROQUA        CLOUDY    10   4  77 N16       29.83S WCI  -7
BOSCOBEL       CLOUDY    14   5  67 N15G22    29.88R WCI  -1
PRAIRIE DU CHI MIX PCPN  14   6  70 NW13      29.89S WCI   0
PLATTEVILLE    PTCLDY    14  10  82 NW16      29.81S WCI  -2
$$

WIZ056-057-062-063-064-067-068-090900-
SOUTH CENTRAL WISCONSIN

CITY           SKY/WX    TMP DP  RH WIND       PRES   REMARKS
REEDSBURG      PTCLDY    11   5  77 NW10      29.82S WCI  -3
BARABOO/DELLS  FLURRIES  11   5  76 NW12G17   29.81R WCI  -3
LONE ROCK      CLOUDY    13   5  70 NW13G21   29.85R WCI  -2
MINERAL POINT  FLURRIES  14  10  85 NW14      29.80R WCI  -1
MADISON        LGT SNOW  14   8  77 NW8G20    29.79R WCI   3
MIDDLETON      CLOUDY    15  10  80 NW14      29.79S WCI   1
WATERTOWN      LGT SNOW  15  13  92 NW10G17   29.75S WCI   2
MONROE         LGT SNOW  14  12  92 NW9G17    29.77S WCI   2
JANESVILLE     FLURRIES  19  12  73 NW13      29.77S WCI   7
$$

WIZ051-052-058>065-066-070>072-090900-
SOUTHEAST WISCONSIN

CITY           SKY/WX    TMP DP  RH WIND       PRES   REMARKS
MILWAUKEE      LGT SNOW  19  14  81 NW10      29.72S WCI   7
WAUKESHA       FLURRIES  16  12  86 NW14      29.73S WCI   1
MILWAUKEE/TIMM FLURRIES  19  12  73 NW12      29.73F WCI   7
RACINE         FLURRIES  19  12  74 NW10G20   29.73S WCI   7
BURLINGTON     LGT SNOW  15  11  84 NW12      29.74S WCI   2
KENOSHA        LGT SNOW  18  13  80 NW14      29.72S WCI   4
FOND DU LAC    FLURRIES  16  11  80 NW13      29.76R WCI   2
SHEBOYGAN      FLURRIES  18  11  74 NW13      29.73R WCI   5
WEST BEND      LGT SNOW  18  14  86 NW9       29.72S WCI   6
JUNEAU         FLURRIES  14  11  86 NW12      29.76R WCI   0
$$

LSZ147-162-090900-
LAKE SUPERIOR

STATION/POSITION TIME  TEMP    WIND        PRES    WAVE
                       AIR SEA DIR/SP/G            HT/PER
                 (UTC) (F)     (DEG/KT/KT) (MB)    (FT/S)
DEVILS ISLAND    0700   13     340/ 22/ 26 1014.7S
PORT WING        0700   12     340/ 19/ 24 1014.9S
SAXON HARBOR     0700   16                 1011.9
$$

LMZ867-665-643>646-090900-
LAKE MICHIGAN

STATION/POSITION TIME  TEMP    WIND        PRES    WAVE
                       AIR SEA DIR/SP/G            HT/PER
                 (UTC) (F)     (DEG/KT/KT) (MB)    (FT/S)
CHAMBERS ISLAND  0700   16     310/ 16/ 21 1007.1F
NORTHPORT PIER   0712   18     330/ 17/ 26 1006.1F
ALGOMA LAKESHORE 0711          320/  8/ 11   N/A
KEWAUNEE LAKESHO 0700   17     340/  8/ 12 1006.1F
SHEBOYGAN LAKESH 0700   19     330/ 13/ 15 1007.8F
PORT WASHINGTON  0740   20     310/  5/  8 1007.8F
MILWAUKEE LAKESH 0710   20     310/ 13/ 16   N/A
KENOSHA   LAKESH 0700   19     310/ 16/ 20 1006.4S
$$

TC  - TEMPERATURE IN CELSIUS
VSB - VISIBILITY IN STATUTE MILES
WCI - WIND CHILL INDEX
HX  - HEAT INDEX





USA.gov is the U.S. government's official web portal to all federal, state and local government web resources and services.